Time,TemperatureF,DewpointF,PressureIn,WindDirection,WindDirectionDegrees,WindSpeedMPH,WindSpeedGustMPH,Humidity,HourlyPrecipIn,Conditions,Clouds,dailyrainin,SoftwareType,DateUTC
2013-05-24 00:01:00,61.7,56.2,30.02,WNW,293,0.0,0.0,82,0.00,,,0.00,WUHU216HW,2013-05-24 04:01:00,
2013-05-24 00:06:00,61.7,56.2,30.03,North,0,0.0,0.4,82,0.00,,,0.00,WUHU216HW,2013-05-24 04:06:00,
2013-05-24 00:11:00,61.9,56.3,30.02,North,0,0.0,1.1,82,0.00,,,0.00,WUHU216HW,2013-05-24 04:11:00,
2013-05-24 00:16:00,61.9,56.3,30.02,NE,45,0.0,1.1,82,0.00,,,0.00,WUHU216HW,2013-05-24 04:16:00,
2013-05-24 00:21:00,61.9,56.3,30.02,NW,315,0.0,0.2,82,0.00,,,0.00,WUHU216HW,2013-05-24 04:21:00,
2013-05-24 00:26:00,61.9,56.3,30.03,NW,315,0.0,0.2,82,0.00,,,0.00,WUHU216HW,2013-05-24 04:26:00,
2013-05-24 00:31:00,61.9,56.3,30.02,North,0,0.0,0.4,82,0.00,,,0.00,WUHU216HW,2013-05-24 04:31:00,
2013-05-24 00:36:00,61.7,56.2,30.02,NNE,23,0.0,0.7,82,0.00,,,0.00,WUHU216HW,2013-05-24 04:36:00,
2013-05-24 00:41:00,61.6,56.3,30.02,NNW,338,0.7,0.7,83,0.00,,,0.00,WUHU216HW,2013-05-24 04:41:00,
2013-05-24 00:46:00,61.2,56.1,30.02,North,0,0.2,1.3,83,0.00,,,0.00,WUHU216HW,2013-05-24 04:46:00,
2013-05-24 00:51:00,61.2,56.1,30.02,North,0,1.1,1.6,83,0.00,,,0.00,WUHU216HW,2013-05-24 04:51:00,
2013-05-24 00:56:00,61.2,56.1,30.03,North,0,0.0,1.6,83,0.00,,,0.00,WUHU216HW,2013-05-24 04:56:00,
2013-05-24 01:01:00,61.2,56.1,30.02,NNE,23,1.1,1.1,83,0.00,,,0.00,WUHU216HW,2013-05-24 05:01:00,
2013-05-24 01:06:00,61.2,55.7,30.02,North,0,0.0,1.1,82,0.00,,,0.00,WUHU216HW,2013-05-24 05:06:00,
2013-05-24 01:11:00,61.2,55.7,30.02,NNE,23,0.0,1.1,82,0.00,,,0.00,WUHU216HW,2013-05-24 05:11:00,
2013-05-24 01:16:00,61.2,56.1,30.03,WNW,293,0.0,0.9,83,0.00,,,0.00,WUHU216HW,2013-05-24 05:16:00,
2013-05-24 01:21:00,61.2,56.1,30.03,North,0,0.0,0.9,83,0.00,,,0.00,WUHU216HW,2013-05-24 05:21:00,
2013-05-24 01:26:00,61.2,56.1,30.03,North,0,0.2,0.4,83,0.00,,,0.00,WUHU216HW,2013-05-24 05:26:00,
2013-05-24 01:31:00,61.0,55.9,30.03,NNW,338,0.7,0.9,83,0.00,,,0.00,WUHU216HW,2013-05-24 05:31:00,
2013-05-24 01:36:00,60.8,56.0,30.03,NNW,338,0.0,0.9,84,0.00,,,0.00,WUHU216HW,2013-05-24 05:36:00,
2013-05-24 01:42:00,60.7,55.8,30.03,NNW,338,0.0,0.7,84,0.00,,,0.00,WUHU216HW,2013-05-24 05:42:00,
2013-05-24 01:47:00,60.7,55.8,30.03,NNW,338,0.0,0.0,84,0.00,,,0.00,WUHU216HW,2013-05-24 05:47:00,
2013-05-24 01:52:00,60.5,55.6,30.03,West,270,1.1,1.1,84,0.00,,,0.00,WUHU216HW,2013-05-24 05:52:00,
2013-05-24 01:57:00,60.5,56.0,30.03,WNW,293,0.0,1.3,85,0.00,,,0.00,WUHU216HW,2013-05-24 05:57:00,
2013-05-24 02:02:00,60.3,55.8,30.03,NNW,338,1.1,1.3,85,0.00,,,0.00,WUHU216HW,2013-05-24 06:02:00,
2013-05-24 02:07:00,60.5,55.6,30.03,NW,315,0.9,1.3,84,0.00,,,0.00,WUHU216HW,2013-05-24 06:07:00,
2013-05-24 02:12:00,60.5,56.0,30.03,NW,315,0.4,2.0,85,0.00,,,0.00,WUHU216HW,2013-05-24 06:12:00,
2013-05-24 02:17:00,60.3,55.8,30.03,NW,315,0.9,2.0,85,0.00,,,0.00,WUHU216HW,2013-05-24 06:17:00,
2013-05-24 02:22:00,60.3,55.8,30.03,NNW,338,0.9,2.0,85,0.00,,,0.00,WUHU216HW,2013-05-24 06:22:00,
2013-05-24 02:27:00,60.3,55.4,30.03,NW,315,0.9,1.6,84,0.00,,,0.00,WUHU216HW,2013-05-24 06:27:00,
2013-05-24 02:32:00,60.5,55.6,30.03,NW,315,0.9,1.8,84,0.00,,,0.00,WUHU216HW,2013-05-24 06:32:00,
2013-05-24 02:37:00,60.5,55.6,30.03,WNW,293,0.4,1.8,84,0.00,,,0.00,WUHU216HW,2013-05-24 06:37:00,
2013-05-24 02:42:00,60.5,55.6,30.03,NW,315,1.3,2.2,84,0.00,,,0.00,WUHU216HW,2013-05-24 06:42:00,
2013-05-24 02:47:00,60.3,55.4,30.03,NW,315,0.7,2.2,84,0.00,,,0.00,WUHU216HW,2013-05-24 06:47:00,
2013-05-24 02:52:00,60.3,55.2,30.03,WNW,293,0.7,1.8,83,0.00,,,0.00,WUHU216HW,2013-05-24 06:52:00,
2013-05-24 02:57:00,60.3,55.2,30.03,NW,315,1.1,1.8,83,0.00,,,0.00,WUHU216HW,2013-05-24 06:57:00,
2013-05-24 03:02:00,60.3,55.2,30.03,WNW,293,0.4,1.1,83,0.00,,,0.00,WUHU216HW,2013-05-24 07:02:00,
2013-05-24 03:07:00,60.3,54.8,30.03,NNW,338,2.5,2.5,82,0.00,,,0.00,WUHU216HW,2013-05-24 07:07:00,
2013-05-24 03:12:00,60.3,54.8,30.03,NW,315,0.9,2.5,82,0.00,,,0.00,WUHU216HW,2013-05-24 07:12:00,
2013-05-24 03:17:00,60.3,54.8,30.03,NNW,338,1.8,2.5,82,0.00,,,0.00,WUHU216HW,2013-05-24 07:17:00,
2013-05-24 03:22:00,60.1,55.0,30.03,NW,315,0.9,2.5,83,0.00,,,0.00,WUHU216HW,2013-05-24 07:22:00,
2013-05-24 03:27:00,59.9,54.8,30.03,NNW,338,0.9,1.8,83,0.00,,,0.00,WUHU216HW,2013-05-24 07:27:00,
2013-05-24 03:32:00,59.8,54.6,30.04,NW,315,0.0,1.8,83,0.00,,,0.00,WUHU216HW,2013-05-24 07:32:00,
2013-05-24 03:37:00,59.6,54.7,30.04,WNW,293,0.4,1.6,84,0.00,,,0.00,WUHU216HW,2013-05-24 07:37:00,
2013-05-24 03:42:00,59.4,54.5,30.04,WNW,293,1.3,1.8,84,0.00,,,0.00,WUHU216HW,2013-05-24 07:42:00,
2013-05-24 03:47:00,59.4,54.9,30.04,WNW,293,0.2,1.8,85,0.00,,,0.00,WUHU216HW,2013-05-24 07:47:00,
2013-05-24 03:52:00,59.2,54.7,30.04,West,270,1.1,1.6,85,0.00,,,0.00,WUHU216HW,2013-05-24 07:52:00,
2013-05-24 03:57:00,59.0,54.5,30.03,WSW,248,0.0,1.6,85,0.00,,,0.00,WUHU216HW,2013-05-24 07:57:00,
2013-05-24 04:02:00,58.9,54.4,30.03,West,270,0.7,1.1,85,0.00,,,0.00,WUHU216HW,2013-05-24 08:02:00,
2013-05-24 04:07:00,58.9,54.7,30.04,NW,315,0.7,1.6,86,0.00,,,0.00,WUHU216HW,2013-05-24 08:07:00,
2013-05-24 04:12:00,58.7,54.6,30.04,WNW,293,0.9,2.0,86,0.00,,,0.00,WUHU216HW,2013-05-24 08:12:00,
2013-05-24 04:17:00,58.7,54.8,30.03,NNW,338,0.2,2.0,87,0.00,,,0.00,WUHU216HW,2013-05-24 08:17:00,
2013-05-24 04:22:00,58.7,54.8,30.04,West,270,1.1,1.3,87,0.00,,,0.00,WUHU216HW,2013-05-24 08:22:00,
2013-05-24 04:27:00,58.3,54.5,30.04,WNW,293,0.9,1.3,87,0.00,,,0.00,WUHU216HW,2013-05-24 08:27:00,
2013-05-24 04:32:00,58.1,54.3,30.04,WNW,293,0.0,1.3,87,0.00,,,0.00,WUHU216HW,2013-05-24 08:32:00,
2013-05-24 04:37:00,58.0,54.1,30.05,NNW,338,0.4,1.6,87,0.00,,,0.00,WUHU216HW,2013-05-24 08:37:00,
2013-05-24 04:42:00,58.0,54.1,30.05,NW,315,0.7,1.6,87,0.00,,,0.00,WUHU216HW,2013-05-24 08:42:00,
2013-05-24 04:47:00,58.0,54.1,30.05,North,0,0.0,1.1,87,0.00,,,0.00,WUHU216HW,2013-05-24 08:47:00,
2013-05-24 04:52:00,57.8,53.9,30.05,NNW,338,0.9,1.1,87,0.00,,,0.00,WUHU216HW,2013-05-24 08:52:00,
2013-05-24 04:57:00,57.8,53.9,30.05,North,0,0.4,0.9,87,0.00,,,0.00,WUHU216HW,2013-05-24 08:57:00,
2013-05-24 05:02:00,58.0,54.1,30.05,NNW,338,0.2,1.1,87,0.00,,,0.00,WUHU216HW,2013-05-24 09:02:00,
2013-05-24 05:07:00,58.1,54.3,30.05,North,0,0.9,1.1,87,0.00,,,0.00,WUHU216HW,2013-05-24 09:07:00,
2013-05-24 05:12:00,58.3,54.5,30.05,North,0,0.7,0.9,87,0.00,,,0.00,WUHU216HW,2013-05-24 09:12:00,
2013-05-24 05:17:00,58.5,54.6,30.05,North,0,1.1,1.6,87,0.00,,,0.00,WUHU216HW,2013-05-24 09:17:00,
2013-05-24 05:22:00,58.5,54.4,30.05,WNW,293,0.2,1.8,86,0.00,,,0.00,WUHU216HW,2013-05-24 09:22:00,
2013-05-24 05:27:00,58.7,54.6,30.05,NNE,23,2.2,2.5,86,0.00,,,0.00,WUHU216HW,2013-05-24 09:27:00,
2013-05-24 05:32:00,58.7,54.6,30.05,NNE,23,1.3,2.5,86,0.00,,,0.00,WUHU216HW,2013-05-24 09:32:00,
2013-05-24 05:37:00,58.7,54.2,30.05,North,0,1.8,2.5,85,0.00,,,0.00,WUHU216HW,2013-05-24 09:37:00,
2013-05-24 05:42:00,58.7,54.2,30.05,North,0,0.2,2.7,85,0.00,,,0.00,WUHU216HW,2013-05-24 09:42:00,
2013-05-24 05:47:00,58.7,53.8,30.06,North,0,1.1,3.4,84,0.00,,,0.00,WUHU216HW,2013-05-24 09:47:00,
2013-05-24 05:52:00,58.7,53.8,30.06,NNW,338,0.9,3.4,84,0.00,,,0.00,WUHU216HW,2013-05-24 09:52:00,
2013-05-24 05:57:00,58.5,53.6,30.06,NE,45,1.6,2.9,84,0.00,,,0.00,WUHU216HW,2013-05-24 09:57:00,
2013-05-24 06:03:00,58.5,53.4,30.06,North,0,0.9,4.9,83,0.00,,,0.00,WUHU216HW,2013-05-24 10:03:00,
2013-05-24 06:08:00,58.3,53.2,30.06,North,0,1.1,4.9,83,0.00,,,0.00,WUHU216HW,2013-05-24 10:08:00,
2013-05-24 06:13:00,58.1,53.0,30.06,NNW,338,2.5,3.6,83,0.00,,,0.00,WUHU216HW,2013-05-24 10:13:00,
2013-05-24 06:18:00,58.0,52.8,30.07,North,0,0.9,4.5,83,0.00,,,0.00,WUHU216HW,2013-05-24 10:18:00,
2013-05-24 06:23:00,58.0,52.8,30.07,North,0,0.4,4.7,83,0.00,,,0.00,WUHU216HW,2013-05-24 10:23:00,
2013-05-24 06:28:00,58.0,52.8,30.08,East,90,2.9,4.7,83,0.00,,,0.00,WUHU216HW,2013-05-24 10:28:00,
2013-05-24 06:33:00,57.8,52.7,30.08,North,0,1.1,2.9,83,0.00,,,0.00,WUHU216HW,2013-05-24 10:33:00,
2013-05-24 06:38:00,57.8,52.7,30.08,NNW,338,1.1,3.1,83,0.00,,,0.00,WUHU216HW,2013-05-24 10:38:00,
2013-05-24 06:43:00,57.6,52.5,30.08,North,0,0.9,3.1,83,0.00,,,0.00,WUHU216HW,2013-05-24 10:43:00,
2013-05-24 06:48:00,57.6,52.5,30.08,NNW,338,0.4,2.9,83,0.00,,,0.00,WUHU216HW,2013-05-24 10:48:00,
2013-05-24 06:53:00,57.6,52.5,30.08,ENE,68,0.4,2.9,83,0.00,,,0.00,WUHU216HW,2013-05-24 10:53:00,
2013-05-24 06:58:00,57.4,51.9,30.09,North,0,0.4,2.7,82,0.00,,,0.00,WUHU216HW,2013-05-24 10:58:00,
2013-05-24 07:04:00,57.4,51.9,30.09,NNE,23,1.1,2.5,82,0.00,,,0.00,WUHU216HW,2013-05-24 11:04:00,
2013-05-24 07:09:00,57.2,51.8,30.09,WNW,293,1.8,2.5,82,0.00,,,0.00,WUHU216HW,2013-05-24 11:09:00,
2013-05-24 07:14:00,57.2,51.8,30.09,NE,45,2.5,2.5,82,0.00,,,0.00,WUHU216HW,2013-05-24 11:14:00,
2013-05-24 07:19:00,56.9,51.4,30.10,North,0,1.6,4.0,82,0.00,,,0.00,WUHU216HW,2013-05-24 11:19:00,
2013-05-24 07:24:00,56.9,51.4,30.10,North,0,0.2,4.0,82,0.00,,,0.00,WUHU216HW,2013-05-24 11:24:00,
2013-05-24 07:29:00,56.7,51.2,30.11,NNW,338,2.2,2.7,82,0.00,,,0.00,WUHU216HW,2013-05-24 11:29:00,
2013-05-24 07:34:00,56.5,51.0,30.11,NNW,338,0.9,2.7,82,0.00,,,0.00,WUHU216HW,2013-05-24 11:34:00,
2013-05-24 07:39:00,56.5,51.4,30.11,North,0,1.1,3.1,83,0.00,,,0.00,WUHU216HW,2013-05-24 11:39:00,
2013-05-24 07:44:00,56.5,50.8,30.11,North,0,0.9,3.1,81,0.00,,,0.00,WUHU216HW,2013-05-24 11:44:00,
2013-05-24 07:49:00,56.3,50.6,30.11,North,0,1.1,3.4,81,0.00,,,0.00,WUHU216HW,2013-05-24 11:49:00,
2013-05-24 07:54:00,56.3,50.9,30.12,North,0,1.1,3.4,82,0.00,,,0.00,WUHU216HW,2013-05-24 11:54:00,
2013-05-24 07:59:00,56.3,50.9,30.12,NNW,338,3.6,4.5,82,0.00,,,0.00,WUHU216HW,2013-05-24 11:59:00,
2013-05-24 08:04:00,56.2,50.4,30.13,NNE,23,0.4,4.5,81,0.00,,,0.00,WUHU216HW,2013-05-24 12:04:00,
2013-05-24 08:09:00,56.2,50.4,30.13,NNE,23,1.1,4.0,81,0.00,,,0.00,WUHU216HW,2013-05-24 12:09:00,
2013-05-24 08:14:00,56.2,50.4,30.13,North,0,1.1,2.9,81,0.00,,,0.00,WUHU216HW,2013-05-24 12:14:00,
2013-05-24 08:19:00,56.3,50.6,30.14,North,0,0.9,2.9,81,0.00,,,0.00,WUHU216HW,2013-05-24 12:19:00,
2013-05-24 08:24:00,56.2,50.4,30.14,NNW,338,1.1,2.5,81,0.00,,,0.00,WUHU216HW,2013-05-24 12:24:00,
2013-05-24 08:29:00,56.3,50.6,30.14,North,0,0.9,2.5,81,0.00,,,0.00,WUHU216HW,2013-05-24 12:29:00,
2013-05-24 08:35:00,56.5,50.8,30.15,ENE,68,0.4,2.7,81,0.00,,,0.00,WUHU216HW,2013-05-24 12:35:00,
2013-05-24 08:40:00,56.5,50.8,30.15,NNW,338,1.1,3.6,81,0.00,,,0.00,WUHU216HW,2013-05-24 12:40:00,
2013-05-24 08:42:00,56.5,50.8,30.15,North,0,0.7,3.6,81,0.00,,,0.00,WUHU216HW,2013-05-24 12:42:00,
2013-05-24 08:55:00,56.5,50.4,30.16,NW,315,1.3,3.4,80,0.00,,,0.00,WUHU216HW,2013-05-24 12:55:00,
2013-05-24 09:00:00,57.1,50.9,30.17,North,0,1.1,2.0,80,0.00,,,0.00,WUHU216HW,2013-05-24 13:00:00,
2013-05-24 09:05:00,57.2,51.1,30.17,NNW,338,1.1,2.7,80,0.00,,,0.00,WUHU216HW,2013-05-24 13:05:00,
2013-05-24 09:10:00,57.2,51.1,30.18,West,270,1.8,2.7,80,0.00,,,0.00,WUHU216HW,2013-05-24 13:10:00,
2013-05-24 09:15:00,57.2,50.8,30.18,North,0,0.9,2.7,79,0.00,,,0.00,WUHU216HW,2013-05-24 13:15:00,
2013-05-24 09:20:00,57.1,50.6,30.18,North,0,0.4,2.7,79,0.00,,,0.00,WUHU216HW,2013-05-24 13:20:00,
2013-05-24 09:25:00,56.9,50.4,30.18,WNW,293,1.6,2.7,79,0.00,,,0.00,WUHU216HW,2013-05-24 13:25:00,
2013-05-24 09:30:00,56.7,50.2,30.18,North,0,1.3,2.5,79,0.00,,,0.00,WUHU216HW,2013-05-24 13:30:00,
2013-05-24 09:35:00,56.5,50.0,30.19,NNW,338,0.4,2.5,79,0.00,,,0.00,WUHU216HW,2013-05-24 13:35:00,
2013-05-24 09:40:00,56.7,50.2,30.19,NE,45,0.7,2.9,79,0.00,,,0.00,WUHU216HW,2013-05-24 13:40:00,
2013-05-24 09:45:00,56.9,50.0,30.19,North,0,0.7,3.8,78,0.00,,,0.00,WUHU216HW,2013-05-24 13:45:00,
2013-05-24 09:50:00,57.1,50.6,30.19,WNW,293,1.3,3.8,79,0.00,,,0.00,WUHU216HW,2013-05-24 13:50:00,
2013-05-24 09:55:00,57.2,50.8,30.20,NNW,338,0.9,2.7,79,0.00,,,0.00,WUHU216HW,2013-05-24 13:55:00,
2013-05-24 10:00:00,57.2,50.4,30.20,ENE,68,1.8,2.7,78,0.00,,,0.00,WUHU216HW,2013-05-24 14:00:00,
2013-05-24 10:05:00,56.9,49.7,30.20,West,270,1.6,2.7,77,0.00,,,0.00,WUHU216HW,2013-05-24 14:05:00,
2013-05-24 10:10:00,56.7,49.9,30.20,North,0,2.5,3.1,78,0.00,,,0.00,WUHU216HW,2013-05-24 14:10:00,
2013-05-24 10:15:00,56.5,49.7,30.21,SW,225,0.7,3.1,78,0.00,,,0.00,WUHU216HW,2013-05-24 14:15:00,
2013-05-24 10:20:00,56.5,49.7,30.21,NNW,338,0.2,2.5,78,0.00,,,0.00,WUHU216HW,2013-05-24 14:20:00,
2013-05-24 10:25:00,56.3,49.5,30.21,North,0,2.5,3.1,78,0.00,,,0.00,WUHU216HW,2013-05-24 14:25:00,
2013-05-24 10:30:00,56.2,49.3,30.21,North,0,0.9,3.1,78,0.00,,,0.00,WUHU216HW,2013-05-24 14:30:00,
2013-05-24 10:36:00,56.2,49.7,30.22,NNE,23,1.1,2.9,79,0.00,,,0.00,WUHU216HW,2013-05-24 14:36:00,
2013-05-24 10:41:00,56.2,49.3,30.22,North,0,1.1,3.1,78,0.00,,,0.00,WUHU216HW,2013-05-24 14:41:00,
2013-05-24 10:46:00,56.3,49.9,30.21,WNW,293,0.0,3.1,79,0.00,,,0.00,WUHU216HW,2013-05-24 14:46:00,
2013-05-24 10:51:00,56.5,50.0,30.22,West,270,1.1,2.5,79,0.00,,,0.00,WUHU216HW,2013-05-24 14:51:00,
2013-05-24 10:56:00,56.7,50.2,30.22,NNW,338,2.5,2.5,79,0.00,,,0.00,WUHU216HW,2013-05-24 14:56:00,
2013-05-24 11:03:00,57.1,50.2,30.22,NW,315,0.4,2.5,78,0.00,,,0.00,WUHU216HW,2013-05-24 15:03:00,
2013-05-24 11:08:00,57.6,50.4,30.22,ENE,68,0.7,2.2,77,0.00,,,0.00,WUHU216HW,2013-05-24 15:08:00,
2013-05-24 11:13:00,58.1,50.6,30.22,NNW,338,1.1,2.0,76,0.00,,,0.00,WUHU216HW,2013-05-24 15:13:00,
2013-05-24 11:18:00,58.3,50.8,30.22,East,90,0.4,1.8,76,0.00,,,0.00,WUHU216HW,2013-05-24 15:18:00,
2013-05-24 11:23:00,58.0,49.7,30.23,NW,315,1.1,1.6,74,0.00,,,0.00,WUHU216HW,2013-05-24 15:23:00,
2013-05-24 11:28:00,58.0,50.0,30.23,North,0,0.7,2.5,75,0.00,,,0.00,WUHU216HW,2013-05-24 15:28:00,
2013-05-24 11:33:00,58.0,49.3,30.23,East,90,0.2,2.5,73,0.00,,,0.00,WUHU216HW,2013-05-24 15:33:00,
2013-05-24 11:38:00,58.0,49.3,30.23,NE,45,1.6,2.5,73,0.00,,,0.00,WUHU216HW,2013-05-24 15:38:00,
2013-05-24 11:43:00,58.0,49.3,30.23,NW,315,1.3,2.5,73,0.00,,,0.00,WUHU216HW,2013-05-24 15:43:00,
2013-05-24 11:48:00,58.1,49.1,30.24,North,0,1.8,3.6,72,0.00,,,0.00,WUHU216HW,2013-05-24 15:48:00,
2013-05-24 11:53:00,58.1,49.1,30.24,North,0,0.2,3.6,72,0.00,,,0.00,WUHU216HW,2013-05-24 15:53:00,
2013-05-24 11:58:00,58.3,49.3,30.24,SSE,158,1.8,3.6,72,0.00,,,0.00,WUHU216HW,2013-05-24 15:58:00,
2013-05-24 12:03:00,58.7,49.7,30.24,West,270,3.4,3.4,72,0.00,,,0.00,WUHU216HW,2013-05-24 16:03:00,
2013-05-24 12:08:00,58.3,49.3,30.24,NNE,23,0.7,3.6,72,0.00,,,0.00,WUHU216HW,2013-05-24 16:08:00,
2013-05-24 12:13:00,58.1,49.1,30.24,North,0,1.6,2.0,72,0.00,,,0.00,WUHU216HW,2013-05-24 16:13:00,
2013-05-24 12:18:00,58.3,49.3,30.24,NNW,338,1.3,2.0,72,0.00,,,0.00,WUHU216HW,2013-05-24 16:18:00,
2013-05-24 12:23:00,58.5,49.5,30.24,NW,315,0.2,1.6,72,0.00,,,0.00,WUHU216HW,2013-05-24 16:23:00,
2013-05-24 12:28:00,58.7,49.3,30.24,NE,45,1.3,2.5,71,0.00,,,0.00,WUHU216HW,2013-05-24 16:28:00,
2013-05-24 12:33:00,59.2,49.1,30.24,North,0,1.8,3.6,69,0.00,,,0.00,WUHU216HW,2013-05-24 16:33:00,
2013-05-24 12:38:00,59.4,49.2,30.24,North,0,2.0,4.0,69,0.00,,,0.00,WUHU216HW,2013-05-24 16:38:00,
2013-05-24 12:43:00,59.6,49.1,30.24,North,0,1.1,4.0,68,0.00,,,0.00,WUHU216HW,2013-05-24 16:43:00,
2013-05-24 12:48:00,59.9,49.4,30.24,West,270,1.1,2.7,68,0.00,,,0.00,WUHU216HW,2013-05-24 16:48:00,
2013-05-24 12:53:00,60.1,49.6,30.24,North,0,1.1,2.7,68,0.00,,,0.00,WUHU216HW,2013-05-24 16:53:00,
2013-05-24 12:58:00,60.3,49.0,30.24,NE,45,1.8,2.7,66,0.00,,,0.00,WUHU216HW,2013-05-24 16:58:00,
2013-05-24 13:03:00,60.5,48.7,30.24,ENE,68,3.6,3.6,65,0.00,,,0.00,WUHU216HW,2013-05-24 17:03:00,
2013-05-24 13:08:00,60.5,48.7,30.24,North,0,1.8,4.5,65,0.00,,,0.00,WUHU216HW,2013-05-24 17:08:00,
2013-05-24 13:13:00,60.5,48.7,30.24,NE,45,1.1,4.5,65,0.00,,,0.00,WUHU216HW,2013-05-24 17:13:00,
2013-05-24 13:18:00,60.5,48.7,30.24,North,0,1.1,4.3,65,0.00,,,0.00,WUHU216HW,2013-05-24 17:18:00,
2013-05-24 13:23:00,60.8,49.1,30.24,NNE,23,2.2,2.7,65,0.00,,,0.00,WUHU216HW,2013-05-24 17:23:00,
2013-05-24 13:28:00,61.0,48.4,30.24,East,90,1.8,3.8,63,0.00,,,0.00,WUHU216HW,2013-05-24 17:28:00,
2013-05-24 13:33:00,61.4,48.7,30.24,NW,315,1.6,3.8,63,0.00,,,0.00,WUHU216HW,2013-05-24 17:33:00,
2013-05-24 13:38:00,61.7,49.9,30.24,WNW,293,2.5,2.5,65,0.00,,,0.00,WUHU216HW,2013-05-24 17:38:00,
2013-05-24 13:43:00,61.9,50.1,30.24,NNW,338,0.9,2.5,65,0.00,,,0.00,WUHU216HW,2013-05-24 17:43:00,
2013-05-24 13:48:00,62.1,50.2,30.24,NNE,23,1.8,2.9,65,0.00,,,0.00,WUHU216HW,2013-05-24 17:48:00,
2013-05-24 13:53:00,62.3,49.5,30.24,North,0,1.8,2.9,63,0.00,,,0.00,WUHU216HW,2013-05-24 17:53:00,
2013-05-24 13:58:00,62.3,49.5,30.24,NE,45,1.1,2.7,63,0.00,,,0.00,WUHU216HW,2013-05-24 17:58:00,
2013-05-24 14:03:00,62.5,49.7,30.24,East,90,2.5,4.7,63,0.00,,,0.00,WUHU216HW,2013-05-24 18:03:00,
2013-05-24 14:08:00,62.5,48.4,30.24,WNW,293,1.8,4.7,60,0.00,,,0.00,WUHU216HW,2013-05-24 18:08:00,
2013-05-24 14:13:00,62.6,49.4,30.24,NNE,23,1.1,2.7,62,0.00,,,0.00,WUHU216HW,2013-05-24 18:13:00,
2013-05-24 14:18:00,63.0,49.8,30.24,NNE,23,0.4,1.8,62,0.00,,,0.00,WUHU216HW,2013-05-24 18:18:00,
2013-05-24 14:23:00,63.4,50.1,30.24,West,270,0.7,2.9,62,0.00,,,0.00,WUHU216HW,2013-05-24 18:23:00,
2013-05-24 14:28:00,63.2,50.0,30.24,WNW,293,0.4,2.9,62,0.00,,,0.00,WUHU216HW,2013-05-24 18:28:00,
2013-05-24 14:33:00,63.5,50.2,30.24,WSW,248,0.9,2.5,62,0.00,,,0.00,WUHU216HW,2013-05-24 18:33:00,
2013-05-24 14:38:00,63.7,50.4,30.23,North,0,0.4,2.5,62,0.00,,,0.00,WUHU216HW,2013-05-24 18:38:00,
2013-05-24 14:43:00,64.1,50.8,30.23,SW,225,1.8,1.8,62,0.00,,,0.00,WUHU216HW,2013-05-24 18:43:00,
2013-05-24 14:48:00,63.9,49.2,30.23,WNW,293,1.8,2.2,59,0.00,,,0.00,WUHU216HW,2013-05-24 18:48:00,
2013-05-24 14:53:00,63.9,49.2,30.23,NNW,338,1.1,2.9,59,0.00,,,0.00,WUHU216HW,2013-05-24 18:53:00,
2013-05-24 14:58:00,64.1,49.9,30.23,NNE,23,0.7,2.9,60,0.00,,,0.00,WUHU216HW,2013-05-24 18:58:00,
2013-05-24 15:03:00,64.4,49.8,30.23,NNW,338,0.0,4.9,59,0.00,,,0.00,WUHU216HW,2013-05-24 19:03:00,
2013-05-24 15:08:00,64.8,50.6,30.23,NNW,338,0.4,4.9,60,0.00,,,0.00,WUHU216HW,2013-05-24 19:08:00,
2013-05-24 15:13:00,65.3,51.1,30.23,NW,315,0.4,2.5,60,0.00,,,0.00,WUHU216HW,2013-05-24 19:13:00,
2013-05-24 15:18:00,65.5,49.9,30.23,ENE,68,0.9,2.9,57,0.00,,,0.00,WUHU216HW,2013-05-24 19:18:00,
2013-05-24 15:23:00,65.9,49.7,30.23,North,0,0.7,3.8,56,0.00,,,0.00,WUHU216HW,2013-05-24 19:23:00,
2013-05-24 15:28:00,65.9,49.7,30.23,NE,45,1.8,3.8,56,0.00,,,0.00,WUHU216HW,2013-05-24 19:28:00,
2013-05-24 15:33:00,66.2,49.6,30.23,NE,45,1.3,3.4,55,0.00,,,0.00,WUHU216HW,2013-05-24 19:33:00,
2013-05-24 15:38:00,66.6,50.0,30.23,NNE,23,2.5,3.4,55,0.00,,,0.00,WUHU216HW,2013-05-24 19:38:00,
2013-05-24 15:43:00,67.0,50.2,30.23,NW,315,0.2,2.5,55,0.00,,,0.00,WUHU216HW,2013-05-24 19:43:00,
2013-05-24 15:48:00,67.3,51.0,30.23,NW,315,0.4,2.5,56,0.00,,,0.00,WUHU216HW,2013-05-24 19:48:00,
2013-05-24 15:53:00,67.7,50.9,30.23,North,0,2.7,2.9,55,0.00,,,0.00,WUHU216HW,2013-05-24 19:53:00,
2013-05-24 15:58:00,67.7,50.9,30.23,West,270,2.5,3.4,55,0.00,,,0.00,WUHU216HW,2013-05-24 19:58:00,
2013-05-24 16:03:00,67.3,50.0,30.23,NNW,338,0.4,3.4,54,0.00,,,0.00,WUHU216HW,2013-05-24 20:03:00,
2013-05-24 16:08:00,67.3,50.6,30.23,West,270,1.1,2.7,55,0.00,,,0.00,WUHU216HW,2013-05-24 20:08:00,
2013-05-24 16:13:00,67.5,50.2,30.23,NW,315,1.3,3.1,54,0.00,,,0.00,WUHU216HW,2013-05-24 20:13:00,
2013-05-24 16:18:00,68.0,49.8,30.23,NNE,23,0.9,3.8,52,0.00,,,0.00,WUHU216HW,2013-05-24 20:18:00,
2013-05-24 16:23:00,68.6,49.2,30.23,North,0,0.7,3.8,50,0.00,,,0.00,WUHU216HW,2013-05-24 20:23:00,
2013-05-24 16:28:00,68.9,50.1,30.23,NW,315,2.2,3.6,51,0.00,,,0.00,WUHU216HW,2013-05-24 20:28:00,
2013-05-24 16:33:00,68.9,50.1,30.23,North,0,0.9,2.5,51,0.00,,,0.00,WUHU216HW,2013-05-24 20:33:00,
2013-05-24 16:38:00,69.3,49.3,30.23,North,0,1.3,3.4,49,0.00,,,0.00,WUHU216HW,2013-05-24 20:38:00,
2013-05-24 16:44:00,69.3,50.0,30.23,NW,315,0.4,3.4,50,0.00,,,0.00,WUHU216HW,2013-05-24 20:44:00,
2013-05-24 16:49:00,68.6,48.7,30.23,West,270,1.6,2.5,49,0.00,,,0.00,WUHU216HW,2013-05-24 20:49:00,
2013-05-24 16:54:00,67.7,48.4,30.23,West,270,2.2,2.9,50,0.00,,,0.00,WUHU216HW,2013-05-24 20:54:00,
2013-05-24 16:59:00,66.6,47.5,30.23,NW,315,1.6,2.9,50,0.00,,,0.00,WUHU216HW,2013-05-24 20:59:00,
2013-05-24 17:04:00,66.2,47.2,30.23,NW,315,2.0,2.5,50,0.00,,,0.00,WUHU216HW,2013-05-24 21:04:00,
2013-05-24 17:09:00,66.2,48.2,30.23,NNW,338,1.1,2.2,52,0.00,,,0.00,WUHU216HW,2013-05-24 21:09:00,
2013-05-24 17:14:00,66.4,48.8,30.23,NW,315,0.4,2.0,53,0.00,,,0.00,WUHU216HW,2013-05-24 21:14:00,
2013-05-24 17:19:00,66.4,48.3,30.24,NNE,23,1.8,1.8,52,0.00,,,0.00,WUHU216HW,2013-05-24 21:19:00,
2013-05-24 17:24:00,66.2,47.6,30.24,NNW,338,0.9,1.8,51,0.00,,,0.00,WUHU216HW,2013-05-24 21:24:00,
2013-05-24 17:29:00,66.1,47.4,30.23,WNW,293,1.6,2.0,51,0.00,,,0.00,WUHU216HW,2013-05-24 21:29:00,
2013-05-24 17:34:00,65.9,48.2,30.24,ESE,113,1.3,2.2,53,0.00,,,0.00,WUHU216HW,2013-05-24 21:34:00,
2013-05-24 17:39:00,65.7,48.1,30.23,WNW,293,1.8,2.2,53,0.00,,,0.00,WUHU216HW,2013-05-24 21:39:00,
2013-05-24 17:44:00,65.5,47.4,30.23,West,270,1.6,2.0,52,0.00,,,0.00,WUHU216HW,2013-05-24 21:44:00,
2013-05-24 17:49:00,65.3,48.3,30.23,North,0,0.0,1.8,54,0.00,,,0.00,WUHU216HW,2013-05-24 21:49:00,
2013-05-24 17:54:00,65.3,47.7,30.23,NNW,338,1.1,1.8,53,0.00,,,0.00,WUHU216HW,2013-05-24 21:54:00,
2013-05-24 17:59:00,65.2,47.5,30.23,NNW,338,0.0,2.7,53,0.00,,,0.00,WUHU216HW,2013-05-24 21:59:00,
2013-05-24 18:04:00,65.2,47.5,30.23,WNW,293,0.7,2.7,53,0.00,,,0.00,WUHU216HW,2013-05-24 22:04:00,
2013-05-24 18:09:00,65.2,48.1,30.23,NNW,338,0.4,2.0,54,0.00,,,0.00,WUHU216HW,2013-05-24 22:09:00,
2013-05-24 18:14:00,65.0,48.3,30.23,North,0,1.1,2.5,55,0.00,,,0.00,WUHU216HW,2013-05-24 22:14:00,
2013-05-24 18:19:00,65.0,47.3,30.23,NW,315,1.1,2.5,53,0.00,,,0.00,WUHU216HW,2013-05-24 22:19:00,
2013-05-24 18:24:00,64.8,47.2,30.23,NNW,338,0.9,1.8,53,0.00,,,0.00,WUHU216HW,2013-05-24 22:24:00,
2013-05-24 18:29:00,64.8,47.2,30.23,NNE,23,3.1,3.1,53,0.00,,,0.00,WUHU216HW,2013-05-24 22:29:00,
2013-05-24 18:34:00,64.8,46.7,30.23,NNE,23,1.8,3.1,52,0.00,,,0.00,WUHU216HW,2013-05-24 22:34:00,
2013-05-24 18:39:00,64.8,46.2,30.23,NE,45,1.8,3.8,51,0.00,,,0.00,WUHU216HW,2013-05-24 22:39:00,
2013-05-24 18:44:00,64.6,47.0,30.23,WNW,293,0.9,3.8,53,0.00,,,0.00,WUHU216HW,2013-05-24 22:44:00,
2013-05-24 18:49:00,64.4,46.4,30.24,North,0,0.0,2.5,52,0.00,,,0.00,WUHU216HW,2013-05-24 22:49:00,
2013-05-24 18:54:00,64.4,46.4,30.23,NNE,23,0.7,1.3,52,0.00,,,0.00,WUHU216HW,2013-05-24 22:54:00,
2013-05-24 18:59:00,64.4,45.8,30.23,NNW,338,0.9,1.8,51,0.00,,,0.00,WUHU216HW,2013-05-24 22:59:00,
2013-05-24 19:04:00,64.4,45.8,30.23,North,0,0.0,2.0,51,0.00,,,0.00,WUHU216HW,2013-05-24 23:04:00,
2013-05-24 19:09:00,64.3,46.2,30.23,NNE,23,1.8,2.2,52,0.00,,,0.00,WUHU216HW,2013-05-24 23:09:00,
2013-05-24 19:14:00,64.3,45.7,30.23,NE,45,1.1,2.5,51,0.00,,,0.00,WUHU216HW,2013-05-24 23:14:00,
2013-05-24 19:19:00,64.1,45.6,30.23,NNE,23,1.3,2.5,51,0.00,,,0.00,WUHU216HW,2013-05-24 23:19:00,
2013-05-24 19:24:00,63.9,44.9,30.23,North,0,0.4,2.5,50,0.00,,,0.00,WUHU216HW,2013-05-24 23:24:00,
2013-05-24 19:29:00,63.9,45.4,30.23,North,0,0.4,2.5,51,0.00,,,0.00,WUHU216HW,2013-05-24 23:29:00,
2013-05-24 19:34:00,63.7,45.2,30.23,NE,45,0.9,2.2,51,0.00,,,0.00,WUHU216HW,2013-05-24 23:34:00,
2013-05-24 19:39:00,63.5,44.6,30.24,NW,315,1.8,2.2,50,0.00,,,0.00,WUHU216HW,2013-05-24 23:39:00,
2013-05-24 19:44:00,63.4,44.4,30.24,North,0,0.9,2.0,50,0.00,,,0.00,WUHU216HW,2013-05-24 23:44:00,
2013-05-24 19:49:00,63.2,44.2,30.24,NE,45,1.1,2.7,50,0.00,,,0.00,WUHU216HW,2013-05-24 23:49:00,
2013-05-24 19:54:00,63.0,44.6,30.24,North,0,0.0,2.7,51,0.00,,,0.00,WUHU216HW,2013-05-24 23:54:00,
2013-05-24 19:59:00,63.0,44.6,30.24,North,0,1.1,1.1,51,0.00,,,0.00,WUHU216HW,2013-05-24 23:59:00,
2013-05-24 20:04:00,62.8,44.4,30.24,North,0,0.0,1.1,51,0.00,,,0.00,WUHU216HW,2013-05-25 00:04:00,
2013-05-24 20:09:00,62.6,45.2,30.24,North,0,0.0,1.1,53,0.00,,,0.00,WUHU216HW,2013-05-25 00:09:00,
2013-05-24 20:14:00,62.5,45.0,30.24,North,0,0.4,1.1,53,0.00,,,0.00,WUHU216HW,2013-05-25 00:14:00,
2013-05-24 20:19:00,62.3,45.4,30.24,NNW,338,0.0,1.1,54,0.00,,,0.00,WUHU216HW,2013-05-25 00:19:00,
2013-05-24 20:24:00,62.1,45.2,30.24,NE,45,0.7,0.9,54,0.00,,,0.00,WUHU216HW,2013-05-25 00:24:00,
2013-05-24 20:29:00,61.9,45.6,30.24,NNE,23,0.0,1.1,55,0.00,,,0.00,WUHU216HW,2013-05-25 00:29:00,
2013-05-24 20:34:00,61.6,45.7,30.24,North,0,0.0,1.1,56,0.00,,,0.00,WUHU216HW,2013-05-25 00:34:00,
2013-05-24 20:39:00,61.4,46.0,30.24,NNE,23,0.0,0.9,57,0.00,,,0.00,WUHU216HW,2013-05-25 00:39:00,
2013-05-24 20:44:00,60.8,46.0,30.24,NE,45,0.0,0.9,58,0.00,,,0.00,WUHU216HW,2013-05-25 00:44:00,
2013-05-24 20:49:00,60.7,45.8,30.24,East,90,0.0,0.9,58,0.00,,,0.00,WUHU216HW,2013-05-25 00:49:00,
2013-05-24 20:54:00,60.5,45.6,30.24,East,90,0.0,0.9,58,0.00,,,0.00,WUHU216HW,2013-05-25 00:54:00,
2013-05-24 20:59:00,60.3,45.5,30.24,East,90,0.0,0.0,58,0.00,,,0.00,WUHU216HW,2013-05-25 00:59:00,
2013-05-24 21:04:00,60.1,45.3,30.24,East,90,0.0,0.0,58,0.00,,,0.00,WUHU216HW,2013-05-25 01:04:00,
2013-05-24 21:09:00,60.1,45.3,30.24,East,90,0.0,0.0,58,0.00,,,0.00,WUHU216HW,2013-05-25 01:09:00,
2013-05-24 21:14:00,59.8,45.5,30.24,East,90,0.0,0.0,59,0.00,,,0.00,WUHU216HW,2013-05-25 01:14:00,
2013-05-24 21:19:00,59.8,45.5,30.24,East,90,0.0,0.0,59,0.00,,,0.00,WUHU216HW,2013-05-25 01:19:00,
2013-05-24 21:24:00,59.6,45.7,30.24,East,90,0.0,0.0,60,0.00,,,0.00,WUHU216HW,2013-05-25 01:24:00,
2013-05-24 21:29:00,59.4,45.5,30.24,East,90,0.0,0.0,60,0.00,,,0.00,WUHU216HW,2013-05-25 01:29:00,
2013-05-24 21:34:00,59.4,45.5,30.24,East,90,0.0,0.0,60,0.00,,,0.00,WUHU216HW,2013-05-25 01:34:00,
2013-05-24 21:39:00,59.4,45.5,30.24,East,90,0.0,0.0,60,0.00,,,0.00,WUHU216HW,2013-05-25 01:39:00,
2013-05-24 21:44:00,59.2,44.9,30.25,ENE,68,0.0,0.9,59,0.00,,,0.00,WUHU216HW,2013-05-25 01:44:00,
2013-05-24 21:49:00,59.0,44.7,30.25,NE,45,0.0,0.9,59,0.00,,,0.00,WUHU216HW,2013-05-25 01:49:00,
2013-05-24 21:54:00,59.0,44.3,30.25,NE,45,0.0,0.7,58,0.00,,,0.00,WUHU216HW,2013-05-25 01:54:00,
2013-05-24 21:59:00,58.9,44.1,30.25,NE,45,0.4,0.7,58,0.00,,,0.00,WUHU216HW,2013-05-25 01:59:00,
2013-05-24 22:04:00,58.7,43.9,30.25,NE,45,0.0,0.9,58,0.00,,,0.00,WUHU216HW,2013-05-25 02:04:00,
2013-05-24 22:09:00,58.7,44.4,30.25,NE,45,0.0,0.9,59,0.00,,,0.00,WUHU216HW,2013-05-25 02:09:00,
2013-05-24 22:14:00,58.3,44.6,30.25,NE,45,0.0,0.0,60,0.00,,,0.00,WUHU216HW,2013-05-25 02:14:00,
2013-05-24 22:19:00,58.0,44.2,30.25,SE,135,0.0,0.0,60,0.00,,,0.00,WUHU216HW,2013-05-25 02:19:00,
2013-05-24 22:24:00,57.6,44.3,30.25,SSE,158,0.0,0.4,61,0.00,,,0.00,WUHU216HW,2013-05-25 02:24:00,
2013-05-24 22:29:00,57.2,44.4,30.26,SSE,158,0.0,0.4,62,0.00,,,0.00,WUHU216HW,2013-05-25 02:29:00,
2013-05-24 22:34:00,57.1,44.6,30.26,SSE,158,0.0,0.2,63,0.00,,,0.00,WUHU216HW,2013-05-25 02:34:00,
2013-05-24 22:40:00,56.9,44.4,30.26,SSE,158,0.0,0.0,63,0.00,,,0.00,WUHU216HW,2013-05-25 02:40:00,
2013-05-24 22:45:00,57.1,44.6,30.26,SSE,158,0.0,0.0,63,0.00,,,0.00,WUHU216HW,2013-05-25 02:45:00,
2013-05-24 22:50:00,57.1,44.6,30.26,SSE,158,0.0,0.0,63,0.00,,,0.00,WUHU216HW,2013-05-25 02:50:00,
2013-05-24 22:55:00,56.9,44.4,30.26,ESE,113,0.4,0.9,63,0.00,,,0.00,WUHU216HW,2013-05-25 02:55:00,
2013-05-24 23:00:00,56.9,44.0,30.26,NE,45,0.2,0.9,62,0.00,,,0.00,WUHU216HW,2013-05-25 03:00:00,
2013-05-24 23:05:00,56.7,43.8,30.26,NNE,23,0.4,1.1,62,0.00,,,0.00,WUHU216HW,2013-05-25 03:05:00,
2013-05-24 23:10:00,56.7,43.8,30.27,NNE,23,0.0,1.1,62,0.00,,,0.00,WUHU216HW,2013-05-25 03:10:00,
2013-05-24 23:15:00,56.7,44.2,30.27,NNE,23,0.0,0.7,63,0.00,,,0.00,WUHU216HW,2013-05-25 03:15:00,
2013-05-24 23:20:00,56.3,44.3,30.27,NW,315,0.0,0.0,64,0.00,,,0.00,WUHU216HW,2013-05-25 03:20:00,
2013-05-24 23:25:00,56.0,44.4,30.27,WNW,293,0.0,0.0,65,0.00,,,0.00,WUHU216HW,2013-05-25 03:25:00,
2013-05-24 23:30:00,55.6,44.4,30.27,WNW,293,0.0,0.0,66,0.00,,,0.00,WUHU216HW,2013-05-25 03:30:00,
2013-05-24 23:37:00,55.4,44.3,30.27,WNW,293,0.0,0.0,66,0.00,,,0.00,WUHU216HW,2013-05-25 03:37:00,
2013-05-24 23:42:00,55.4,44.3,30.27,NNW,338,0.0,0.0,66,0.00,,,0.00,WUHU216HW,2013-05-25 03:42:00,
2013-05-24 23:47:00,55.4,44.3,30.27,NE,45,0.4,0.7,66,0.00,,,0.00,WUHU216HW,2013-05-25 03:47:00,
2013-05-24 23:52:00,55.4,44.3,30.27,NE,45,0.0,0.7,66,0.00,,,0.00,WUHU216HW,2013-05-25 03:52:00,
2013-05-24 23:57:00,55.6,44.0,30.27,NE,45,0.0,0.4,65,0.00,,,0.00,WUHU216HW,2013-05-25 03:57:00,